Weather History for KNBT - December, 2013

Change the Weather History Date:

Sunday, December 1, 2013

  Actual Average (KMRH) Record (KMRH)
Temperature  
Mean Temperature 49 °F -  
Max Temperature 52 °F 62 °F 76 °F (1991)
Min Temperature 46 °F 41 °F 24 °F (1960)
Degree Days  
Heating Degree Days 16    
Moisture  
Dew Point 46 °F    
Average Humidity 88    
Maximum Humidity 93    
Minimum Humidity 77    
Precipitation  
Precipitation 0.00 in - - ()
Sea Level Pressure  
Sea Level Pressure 30.20 in    
Wind  
Wind Speed 6 mph (North)    
Max Wind Speed 10 mph    
Max Gust Speed -    
Visibility 10 miles    
Events Rain    
Averages and records for this station are not official NWS values.
T = Trace of Precipitation, MM = Missing Value Source: NWS Daily Summary

Daily Weather History Graph

Daily Weather History Graph

Search for Another Location

Airport or City:

Trip Planner

Search our weather history database for the weather conditions in past years. The results will help you decide how hot, cold, wet, or windy it might be!

Date:

Astronomy

Dec. 01, 2013 Rise Set
Actual Time 6:55 AM EST 4:54 PM EST
Civil Twilight 6:27 AM EST 5:21 PM EST
Nautical Twilight 5:56 AM EST 5:53 PM EST
Astronomical Twilight 5:26 AM EST 6:23 PM EST
Moon 5:14 AM EST (12/1) 3:59 PM EST (12/1)
Length of Visible Light 10h 53m
Length of Day
9h 58m
Waning Crescent, 2% of the Moon is Illuminated
Dec 1
Waning Crescent
Dec 2
New
Dec 9
First Quarter
Dec 17
Full
Dec 25
Last Quarter

Hourly Weather History & Observations

Time (EST) Temp. Windchill Dew Point Humidity Pressure Visibility Wind Dir Wind Speed Gust Speed Precip Events Conditions
12:56 AM 46.0 °F 42.5 °F 43.0 °F 89% 30.31 in - NNW 6.9 mph - N/A   Clear
1:56 AM 46.0 °F 41.9 °F 43.0 °F 89% 30.30 in - North 8.1 mph - N/A   Partly Cloudy
2:56 AM 46.0 °F 41.4 °F 44.1 °F 93% 30.30 in - NNW 9.2 mph - N/A   Overcast
3:38 AM 46.0 °F 41.0 °F 43.0 °F 89% 30.27 in - North 10.4 mph - N/A   Overcast
3:56 AM 46.0 °F 41.9 °F 43.0 °F 89% 30.28 in - North 8.1 mph - N/A   Overcast
4:56 AM 46.0 °F 41.4 °F 43.0 °F 89% 30.27 in - NNW 9.2 mph - N/A   Overcast
5:56 AM 46.0 °F 41.4 °F 44.1 °F 93% 30.27 in - North 9.2 mph - N/A   Overcast
6:31 AM 46.0 °F 41.4 °F 44.1 °F 93% 30.26 in - North 9.2 mph - N/A   Overcast
6:56 AM 46.0 °F 43.1 °F 44.1 °F 93% 30.29 in - North 5.8 mph - N/A   Overcast
7:51 AM 46.4 °F 44.3 °F 44.6 °F 93% 30.27 in - North 4.6 mph - N/A   Mostly Cloudy
7:56 AM 46.9 °F - 45.0 °F 93% 30.28 in - North 4.6 mph - N/A   Mostly Cloudy
8:56 AM 50.0 °F - 45.0 °F 83% 30.28 in - NNE 8.1 mph - N/A   Overcast
9:56 AM 50.0 °F - 45.0 °F 83% 30.26 in - NE 6.9 mph - N/A   Overcast
10:56 AM 50.0 °F - 45.0 °F 83% 30.25 in - North 6.9 mph - N/A   Overcast
11:56 AM 52.0 °F - 45.0 °F 77% 30.22 in - North 5.8 mph - N/A   Overcast
12:56 PM 52.0 °F - 45.0 °F 77% 30.19 in - North 3.5 mph - N/A   Overcast
1:56 PM 52.0 °F - 45.0 °F 77% 30.16 in - NE 3.5 mph - 0.00 in   Overcast
2:56 PM 51.1 °F - 46.9 °F 86% 30.14 in - Calm Calm - 0.00 in Rain Light Rain
3:56 PM 52.0 °F - 46.9 °F 83% 30.15 in - SW 3.5 mph - 0.00 in   Overcast
4:56 PM 51.1 °F - 48.0 °F 89% 30.12 in - Calm Calm - 0.00 in   Overcast
5:56 PM 51.1 °F - 48.0 °F 89% 30.12 in - SE 4.6 mph - N/A   Overcast
6:56 PM 50.0 °F - 48.0 °F 93% 30.12 in - SE 4.6 mph - 0.00 in Rain Light Rain
7:56 PM 51.1 °F - 48.9 °F 92% 30.09 in 10.0 mi Calm Calm - 0.00 in   Overcast
8:56 PM 50.0 °F - 48.0 °F 93% 30.07 in 10.0 mi WNW 3.5 mph - N/A   Overcast
9:56 PM 50.0 °F - 48.0 °F 93% 30.06 in - Calm Calm - N/A   Overcast
10:56 PM 50.0 °F - 48.0 °F 93% 30.04 in - NNW 5.8 mph - N/A   Overcast
11:56 PM 51.1 °F - 48.9 °F 92% 30.04 in - Calm Calm - 0.00 in   Overcast